Regional Weather Roundup
Issued by NWS

Home | Current Version | Previous Version | Graphics & Text | Print | Product List | Glossary On
Versions: 1 2 3 4 5 6 7 8 9 10 11 12 13 14 15 16 17 18 19 20 21 22 23 24 25 26 27 28 29 30 31 32 33 34 35 36 37 38 39 40 41 42 43 44 45 46 47 48 49 50
000
ASUS43 KDMX 300808
RWRIA

WEATHER ROUNDUP FOR IOWA
NATIONAL WEATHER SERVICE DES MOINES IA
300 AM CDT FRI SEP 30 2016

NOTE: "FAIR" INDICATES FEW OR NO CLOUDS BELOW 12,000 FEET WITH NO
SIGNIFICANT WEATHER AND/OR OBSTRUCTIONS TO VISIBILITY.

* - THESE STATIONS ARE NOT NWS STATIONS...THUS NOT UNDER NWS
QUALITY CONTROL.  THEY ALSO DO NOT REPORT WEATHER SUCH
AS PRECIPITATION OR FOG.

IAZ001>003-012>014-020>022-031>034-043>046-300900-
   NORTHWEST IOWA

CITY           SKY/WX    TMP DP  RH WIND       PRES   REMARKS
CARROLL *      PTCLDY    48  46  93 N3        30.32S
CHEROKEE *     CLEAR     42  42 100 CALM      30.34F
DENISON *      CLEAR     45  43  93 CALM      30.31S
LE MARS *      CLEAR     45  43  93 CALM      30.35S
SHELDON *      CLEAR     46  46 100 CALM      30.33F
SIOUX CITY     PTCLDY    46  45  96 NW3       30.34S
SPENCER        CLEAR     42  41  96 CALM      30.35F
STORM LAKE *   CLEAR     50  48  93 NE5       30.34F
$$

IAZ055>058-069>071-079>083-090>094-300900-
   SOUTHWEST IOWA

CITY           SKY/WX    TMP DP  RH WIND       PRES   REMARKS
ATLANTIC *     CLEAR     46  45  93 N5        30.31S
AUDUBON *      CLEAR     45  43  93 CALM      30.33S
CLARINDA *       N/A     48  46  93 MISG      30.31S FOG
COUNCIL BLFS * CLEAR     52  46  82 N7        30.31S
CRESTON *      CLEAR     54  48  82 N9        30.31S
HARLAN  *      CLEAR     45  45 100 CALM      30.35S
LAMONI         CLEAR     52  48  86 N6        30.28S
RED OAK *      CLEAR     48  46  93 CALM      30.30F
SHENANDOAH *   CLEAR     46  45  93 CALM      30.30F
$$

IAZ047>049-059>061-072>074-084-300900-
   CENTRAL IOWA

CITY           SKY/WX    TMP DP  RH WIND       PRES   REMARKS
AMES           CLEAR     50  50 100 NW5       30.31S
ANKENY *         N/A    N/A N/A N/A MISG        N/A
BOONE *        CLEAR     52  48  87 N7        30.31S FOG
CHARITON *       N/A     50  48  93 N6        30.27F
DES MOINES     CLEAR     56  50  80 NE7       30.29S
GRINNELL*      CLEAR     52  49  89 N5        30.28F
KNOXVILLE *    CLEAR     57  48  72 N6        30.26S
MARSHALLTOWN   CLEAR     50  49  96 N8        30.28F
NEWTON *       CLEAR     54  50  87 N9        30.27F
PELLA *        CLEAR     51  48  89 N3        30.28F
PERRY *          N/A     48  47  98 N3        30.31F
$$

IAZ004>006-015-016-023>025-035-036-300900-
   NORTH CENTRAL IOWA

CITY           SKY/WX    TMP DP  RH WIND       PRES   REMARKS
ALGONA *       CLEAR     46  45  93 N5        30.35S
CLARION *      CLEAR     46  46 100 NE5       30.33S
ESTHERVILLE    CLEAR     43  43 100 N3        30.35S
FORT DODGE *   CLEAR     46  43  87 CALM      30.34S
MASON CITY     CLEAR     47  45  93 N6        30.36R
FOREST CITY *    N/A     48  46  93 CALM      30.35R
WEBSTER CITY * CLEAR     45  45 100 N5        30.31S
IOWA FALLS *     N/A     53  49  86 CALM      30.33S
$$

IAZ007>011-017>019-026>030-037>042-050>054-066-300900-
   NORTHEAST IOWA

CITY           SKY/WX    TMP DP  RH WIND       PRES   REMARKS
CEDAR RAPIDS   CLEAR     52  50  93 N9        30.25F
CHARLES CITY * CLEAR     52  50  93 N6        30.33S
CLINTON *      CLOUDY    55  53  93 N9        30.22F
DECORAH *      CLEAR     54  50  87 NE5       30.31S
DUBUQUE        CLEAR     53  49  86 NE9       30.26F
MONTICELLO *   CLEAR     54  48  82 NE6       30.25F
OELWEIN *      CLEAR     54  48  82 N7        30.30S
WATERLOO       CLEAR     53  48  83 N8        30.29S
$$

IAZ064-065-067-068-078-300900-
   EAST CENTRAL IOWA

CITY           SKY/WX    TMP DP  RH WIND       PRES   REMARKS
DAVENPORT      MOCLDY    55  52  89 N9        30.22F
IOWA CITY      CLEAR     56  47  71 N9        30.25F
MT. PLEASANT * CLEAR     57  52  84 N8        30.22F
MUSCATINE *    CLEAR     57  48  72 CALM      30.23F
QUAD CITIES    CLOUDY    60  52  74 N9        30.20F
$$

IAZ062-063-075>077-085>089-095>099-300900-
   SOUTHEAST IOWA

CITY           SKY/WX    TMP DP  RH WIND       PRES   REMARKS
BURLINGTON     CLEAR     57  53  86 N10       30.20F
FAIRFIELD *    CLEAR     52  48  87 N6        30.23F
FORT MADISON * CLEAR     55  52  88 N5        30.21F
KEOKUK *       CLEAR     57  54  88 N6        30.20F
OSKALOOSA *      N/A     52  48  87 N8        30.25F
OTTUMWA        CLEAR     54  48  80 N8        30.25F
WASHINGTON *     N/A    N/A N/A N/A MISG        N/A
$$

ABBREVIATIONS USED IN REMARKS
   TC - TEMPERATURES IN CELSIUS
  WCI - WIND CHILL INDEX
   HX - HEAT INDEX
  VSB - VISIBILITY
$$




USA.gov is the U.S. government's official web portal to all federal, state and local government web resources and services.